Regional Weather Roundup
Issued by NWS Sioux Falls, SD

Home | Current Version | Previous Version | Graphics & Text | Print | Product List | Glossary Off
Versions: 1 2 3 4 5 6 7 8 9 10 11 12 13 14 15 16 17 18 19 20 21 22 23 24 25 26 27 28 29 30 31 32 33 34 35 36 37 38 39 40 41 42 43 44 45 46 47 48 49 50

000
ASUS43 KFSD 311902
RWRFSD

WEATHER ROUNDUP FOR SE SOUTH DAKOTA/SW MINNESOTA/NW IOWA
NATIONAL WEATHER SERVICE SIOUX FALLS SD
200 PM CDT THU JUL 31 2014

NOTE: "FAIR" INDICATES FEW OR NO CLOUDS BELOW 12,000 FEET WITH NO
SIGNIFICANT WEATHER AND OR OBSTRUCTIONS TO VISIBILITY.


SDZ038>040-050-052>070-312000-
SOUTHEAST SOUTH DAKOTA

CITY           SKY/WX    TMP DP  RH WIND       PRES   REMARKS
CHAMBERLAIN    PTSUNNY   83  57  41 NE6       30.07S
HURON          PTSUNNY   81  52  36 VRB3      30.06S
MADISON        FAIR      75  55  50 CALM      30.08S
MITCHELL       PTSUNNY   78  63  59 CALM      30.08S
SIOUX FALLS    PTSUNNY   77  59  53 NW6       30.07S
WINNER         FAIR      85  53  33 NE12      30.07F
YANKTON        MOSUNNY   73  64  73 NE9       30.08R
$$

MNZ071-072-080-081-089-090-097-098-312000-
SOUTHWEST MINNESOTA

CITY           SKY/WX    TMP DP  RH WIND       PRES   REMARKS
FAIRMONT       MOSUNNY   81  52  36 W5        30.07S
JACKSON        MOSUNNY   77  55  47 CALM      30.08F
LUVERNE        MOSUNNY   79  57  47 SW6       30.07F
MARSHALL       SUNNY     79  48  34 N3        30.05F
MONTEVIDEO     SUNNY     82  57  42 NW8       30.06S
PIPESTONE      PTSUNNY   75  55  50 W3        30.08S
REDWOOD FALLS  MOSUNNY   79  52  38 NW6       30.05F
TRACY          SUNNY     79  56  45 NE5       30.06F
WINDOM         MOSUNNY   81  55  41 NW3       30.07F
WORTHINGTON    MOSUNNY   77  57  50 CALM      30.09S
$$

IAZ001>003-012>014-020>022-031-032-NEZ013-014-SDZ071-312000-
NORTHWEST IOWA

CITY           SKY/WX    TMP DP  RH WIND       PRES   REMARKS
CHEROKEE       CLOUDY    74  60  61 SW9       30.08S
DENISON        CLOUDY    70  64  83 CALM      30.08S
ESTHERVILLE    MOSUNNY   77  56  48 W6        30.07F
LE MARS        CLOUDY    73  63  68 SW5G12    30.09S
ORANGE CITY    MOSUNNY   77  61  57 S6        30.09S
SHELDON        PTSUNNY   75  59  57 S7        30.07S
SIOUX CITY     CLOUDY    73  62  68 E5        30.08S
SPENCER        MOSUNNY   80  55  42 CALM      30.07F
STORM LAKE     PTSUNNY   75  59  57 SW5       30.10S
$$

ABBREVIATIONS USED IN REMARKS
   TC - TEMPERATURE IN CELSIUS
  WCI - WIND CHILL INDEX
   HX - HEAT INDEX
  VSB - VISIBILITY



USA.gov is the U.S. government's official web portal to all federal, state and local government web resources and services.